Weather History for Nakika, MS

Change the Weather History Date:

Friday, August 29, 2014

  Actual Average Record
Temperature  
Mean Temperature 82 °F -  
Max Temperature 86 °F - - ()
Min Temperature 77 °F - - ()
Cooling Degree Days 16    
Growing Degree Days 32 (Base 50)    
Moisture  
Dew Point 76 °F    
Average Humidity 79    
Maximum Humidity 94    
Minimum Humidity 66    
Precipitation  
Precipitation 0.00 in - - ()
Sea Level Pressure  
Sea Level Pressure 29.96 in    
Wind  
Wind Speed 12 mph (SE)    
Max Wind Speed 23 mph    
Max Gust Speed 25 mph    
Visibility 9 miles    
Events      
T = Trace of Precipitation, MM = Missing Value Source: NWS Daily Summary

Daily Weather History Graph

Daily Weather History Graph

Search for Another Location

Airport:

Trip Planner

Search our weather history database for the weather conditions in past years. The results will help you decide how hot, cold, wet, or windy it might be!

Date:

Astronomy

Aug. 29, 2014 Rise Set
Actual Time 6:29 AM CDT 7:17 PM CDT
Civil Twilight 6:05 AM CDT 7:41 PM CDT
Nautical Twilight 5:37 AM CDT 8:10 PM CDT
Astronomical Twilight 5:08 AM CDT 8:39 PM CDT
Moon 9:57 AM CDT (8/29) 9:38 PM CDT (8/29)
Length of Visible Light 13h 36m
Length of Day
12h 47m
Waxing Crescent, 15% of the Moon is Illuminated
Aug 29
Waxing Crescent
Sep 2
First Quarter
Sep 8
Full
Sep 15
Last Quarter
Sep 24
New

Hourly Weather History & Observations

Time (CDT) Temp. Heat Index Dew Point Humidity Pressure Visibility Wind Dir Wind Speed Gust Speed Precip Events Conditions
12:15 AM 86.0 °F 95.1 °F 75.2 °F 70% 29.95 in 10.0 mi SE 18.4 mph - N/A   Clear
12:35 AM 86.0 °F 95.1 °F 75.2 °F 70% 29.94 in 10.0 mi ESE 18.4 mph - N/A   Clear
12:55 AM 86.0 °F 95.1 °F 75.2 °F 70% 29.94 in 10.0 mi SE 18.4 mph - N/A   Partly Cloudy
1:15 AM 84.2 °F 94.1 °F 77.0 °F 79% 29.93 in 10.0 mi ESE 20.7 mph - N/A   Scattered Clouds
1:35 AM 84.2 °F 92.3 °F 75.2 °F 74% 29.94 in 10.0 mi SE 21.9 mph - N/A   Clear
1:55 AM 84.2 °F 94.1 °F 77.0 °F 79% 29.93 in 10.0 mi ESE 19.6 mph - N/A   Clear
2:15 AM 84.2 °F 94.1 °F 77.0 °F 79% 29.92 in 10.0 mi ESE 18.4 mph - N/A   Clear
2:35 AM 84.2 °F 94.1 °F 77.0 °F 79% 29.93 in 10.0 mi SE 21.9 mph - N/A   Partly Cloudy
2:55 AM 84.2 °F 94.1 °F 77.0 °F 79% 29.92 in 10.0 mi ESE 20.7 mph - N/A   Partly Cloudy
3:15 AM 84.2 °F 94.1 °F 77.0 °F 79% 29.93 in 10.0 mi ESE 19.6 mph - N/A   Mostly Cloudy
3:35 AM 86.0 °F 99.3 °F 78.8 °F 79% 29.93 in 10.0 mi ESE 23.0 mph - N/A   Mostly Cloudy
3:55 AM 86.0 °F 99.3 °F 78.8 °F 79% 29.92 in 10.0 mi SE 20.7 mph - N/A   Mostly Cloudy
4:15 AM 84.2 °F 94.1 °F 77.0 °F 79% 29.90 in 10.0 mi SSE 12.7 mph 21.9 mph N/A   Partly Cloudy
4:35 AM 84.2 °F 96.1 °F 78.8 °F 84% 29.90 in 10.0 mi South 9.2 mph 17.3 mph N/A   Partly Cloudy
4:55 AM 84.2 °F 96.1 °F 78.8 °F 84% 29.88 in 10.0 mi Variable 5.8 mph 16.1 mph N/A   Partly Cloudy
5:15 AM 82.4 °F 89.5 °F 75.2 °F 79% 29.90 in 9.0 mi Variable 5.8 mph 17.3 mph N/A   Partly Cloudy
5:35 AM 82.4 °F 89.5 °F 75.2 °F 79% 29.91 in 10.0 mi Variable 4.6 mph 16.1 mph N/A   Scattered Clouds
5:55 AM 82.4 °F 90.9 °F 77.0 °F 84% 29.91 in 10.0 mi SSE 6.9 mph 12.7 mph N/A   Mostly Cloudy
6:15 AM 84.2 °F 94.1 °F 77.0 °F 79% 29.91 in 10.0 mi South 8.1 mph - N/A   Scattered Clouds
6:35 AM 84.2 °F 94.1 °F 77.0 °F 79% 29.91 in 9.0 mi SSW 8.1 mph - N/A   Mostly Cloudy
6:55 AM 84.2 °F 92.3 °F 75.2 °F 74% 29.91 in 10.0 mi SW 9.2 mph - N/A   Partly Cloudy
7:15 AM 86.0 °F 95.1 °F 75.2 °F 70% 29.91 in 10.0 mi South 6.9 mph - N/A   Clear
7:35 AM 84.2 °F 94.1 °F 77.0 °F 79% 29.93 in 10.0 mi Variable 5.8 mph - N/A   Partly Cloudy
7:55 AM 86.0 °F 96.9 °F 77.0 °F 74% 29.92 in 10.0 mi SSE 6.9 mph - N/A   Mostly Cloudy
8:15 AM 86.0 °F 96.9 °F 77.0 °F 74% 29.92 in 9.0 mi SE 8.1 mph - N/A   Partly Cloudy
8:35 AM 86.0 °F 99.3 °F 78.8 °F 79% 29.95 in 10.0 mi SSE 9.2 mph - N/A   Partly Cloudy
8:55 AM 86.0 °F 99.3 °F 78.8 °F 79% 29.96 in 10.0 mi SSE 8.1 mph - N/A   Partly Cloudy
9:15 AM 86.0 °F 96.9 °F 77.0 °F 74% 29.97 in 10.0 mi SSE 8.1 mph - N/A   Clear
9:35 AM 86.0 °F 95.1 °F 75.2 °F 70% 29.97 in 10.0 mi Variable 5.8 mph - N/A   Partly Cloudy
9:55 AM 86.0 °F 96.9 °F 77.0 °F 74% 29.96 in 10.0 mi Variable 3.5 mph 13.8 mph N/A   Partly Cloudy
10:15 AM 86.0 °F 96.9 °F 77.0 °F 74% 29.95 in 10.0 mi Variable 6.9 mph 13.8 mph N/A   Clear
10:35 AM 86.0 °F 96.9 °F 77.0 °F 74% 29.96 in 10.0 mi Variable 5.8 mph - N/A   Clear
10:55 AM 86.0 °F 96.9 °F 77.0 °F 74% 29.97 in 10.0 mi Variable 6.9 mph 16.1 mph N/A   Clear
11:15 AM 86.0 °F 96.9 °F 77.0 °F 74% 29.99 in 10.0 mi SSE 9.2 mph - N/A   Clear
11:35 AM 84.2 °F 96.1 °F 78.8 °F 84% 29.99 in 8.0 mi SSE 15.0 mph - N/A   Clear
11:55 AM 84.2 °F 96.1 °F 78.8 °F 84% 29.99 in 8.0 mi SSE 10.4 mph 18.4 mph N/A   Clear
12:15 PM 84.2 °F 92.3 °F 75.2 °F 74% 29.98 in 9.0 mi Variable 4.6 mph 21.9 mph N/A   Scattered Clouds
12:35 PM 84.2 °F 92.3 °F 75.2 °F 74% 29.98 in 8.0 mi Variable 4.6 mph 12.7 mph N/A   Partly Cloudy
12:55 PM 86.0 °F 93.4 °F 73.4 °F 66% 29.97 in 10.0 mi SE 15.0 mph - N/A   Clear
1:15 PM 86.0 °F 96.9 °F 77.0 °F 74% 29.96 in 9.0 mi SSE 9.2 mph - N/A   Clear
1:35 PM 84.2 °F 94.1 °F 77.0 °F 79% 29.97 in 9.0 mi SSE 12.7 mph - N/A   Clear
1:55 PM 84.2 °F 92.3 °F 75.2 °F 74% 29.96 in 10.0 mi SSE 10.4 mph - N/A   Clear
2:15 PM 86.0 °F 95.1 °F 75.2 °F 70% 29.95 in 10.0 mi South 10.4 mph 17.3 mph N/A   Clear
2:35 PM 86.0 °F 96.9 °F 77.0 °F 74% 29.95 in 10.0 mi Variable 4.6 mph 16.1 mph N/A   Clear
2:55 PM 84.2 °F 92.3 °F 75.2 °F 74% 29.94 in 9.0 mi Variable 4.6 mph 18.4 mph N/A   Scattered Clouds
3:15 PM 84.2 °F 90.9 °F 73.4 °F 70% 29.94 in 10.0 mi Variable 5.8 mph 18.4 mph N/A   Partly Cloudy
3:35 PM 86.0 °F 95.1 °F 75.2 °F 70% 29.94 in 9.0 mi Variable 4.6 mph 16.1 mph N/A   Clear
3:55 PM 84.2 °F 90.9 °F 73.4 °F 70% 29.94 in 10.0 mi SSW 11.5 mph 21.9 mph N/A   Clear
4:15 PM 84.2 °F 92.3 °F 75.2 °F 74% 29.95 in 10.0 mi Variable 4.6 mph 11.5 mph N/A   Partly Cloudy
4:35 PM 84.2 °F 90.9 °F 73.4 °F 70% 29.96 in 10.0 mi Variable 6.9 mph 17.3 mph N/A   Scattered Clouds
4:55 PM 82.4 °F 88.2 °F 73.4 °F 74% 29.96 in 7.0 mi SE 9.2 mph 16.1 mph N/A   Mostly Cloudy
5:15 PM 80.6 °F 86.2 °F 75.2 °F 84% 29.96 in 6.0 mi West 13.8 mph 21.9 mph N/A   Haze
5:35 PM 78.8 °F - 77.0 °F 94% 29.97 in 1.0 mi Calm Calm 11.5 mph N/A   Overcast
5:55 PM 78.8 °F - 75.2 °F 89% 29.96 in 5.0 mi Variable 4.6 mph - N/A   Mostly Cloudy
6:15 PM 78.8 °F - 75.2 °F 89% 29.99 in 1.0 mi ENE 5.8 mph - N/A   Mostly Cloudy
6:35 PM 77.0 °F - 75.2 °F 94% 29.99 in 0.5 mi Variable 4.6 mph 11.5 mph N/A   Overcast
6:55 PM 77.0 °F - 75.2 °F 94% 29.98 in 8.0 mi East 3.5 mph - N/A   Scattered Clouds
7:15 PM 78.8 °F - 75.2 °F 89% 29.98 in 10.0 mi SE 5.8 mph - N/A   Clear
7:35 PM 78.8 °F - 75.2 °F 89% 29.98 in 10.0 mi SE 8.1 mph - N/A   Scattered Clouds
7:55 PM 78.8 °F - 75.2 °F 89% 29.99 in 5.0 mi ESE 8.1 mph - N/A   Mostly Cloudy
8:15 PM 78.8 °F - 75.2 °F 89% 29.99 in 10.0 mi East 6.9 mph - N/A   Overcast
8:35 PM 80.6 °F 86.2 °F 75.2 °F 84% 30.01 in 10.0 mi East 4.6 mph - N/A   Overcast
8:55 PM 80.6 °F 87.1 °F 77.0 °F 89% 30.02 in 10.0 mi East 3.5 mph - N/A   Mostly Cloudy
9:15 PM 80.6 °F 86.2 °F 75.2 °F 84% 30.02 in 10.0 mi East 6.9 mph - N/A   Partly Cloudy
9:35 PM 80.6 °F 86.2 °F 75.2 °F 84% 30.03 in 10.0 mi East 8.1 mph - N/A   Clear
9:55 PM 80.6 °F 86.2 °F 75.2 °F 84% 30.04 in 6.0 mi SSE 13.8 mph 20.7 mph N/A   Haze
10:15 PM 78.8 °F - 75.2 °F 89% 30.05 in 10.0 mi SE 9.2 mph - N/A   Mostly Cloudy
10:35 PM 80.6 °F 86.2 °F 75.2 °F 84% 30.05 in 10.0 mi South 5.8 mph - N/A   Mostly Cloudy
10:55 PM 80.6 °F 86.2 °F 75.2 °F 84% 30.06 in 9.0 mi Variable 9.2 mph 19.6 mph N/A   Overcast
11:15 PM 80.6 °F 85.4 °F 73.4 °F 79% 30.06 in 10.0 mi SSW 8.1 mph 13.8 mph N/A   Mostly Cloudy
11:35 PM 80.6 °F 86.2 °F 75.2 °F 84% 30.07 in 10.0 mi Variable 9.2 mph 25.3 mph N/A   Overcast
11:55 PM 78.8 °F - 73.4 °F 83% 30.06 in 6.0 mi Variable 4.6 mph 21.9 mph N/A   Haze